YN1GRE-3 Weather Reports


time (UTC)temp
F
wind
direction
speed
knots
gust
knots
rain 1hr
in
rain 24hr
in
rain mn
in
humidity
%
barometer
mb
20260504080908 71 50 2.6 4.3 0.00 0.00 0.00 84 1011.0
20260504050440 73 91 4.3 7.0 0.00 0.00 0.00 83 1013.0
20260504044940 73 91 4.3 7.0 0.00 0.00 0.00 83 1013.0
20260504043439 73 91 4.3 7.0 0.00 0.00 0.00 82 1013.0
20260504041939 72 82 4.3 7.0 0.00 0.00 0.00 81 1013.0
20260504040439 72 82 4.3 7.0 0.00 0.00 0.00 81 1013.0
20260504034938 72 82 4.3 7.0 0.00 0.00 0.00 81 1013.0
20260504033438 72 82 4.3 7.0 0.00 0.00 0.00 81 1013.0
20260504031937 72 79 5.2 9.6 0.00 0.00 0.00 80 1013.0
20260504030437 72 79 5.2 9.6 0.00 0.00 0.00 80 1013.0
20260504023226 72 79 5.2 9.6 0.00 0.00 0.00 80 1013.0
20260504021726 74 79 5.2 13.0 0.00 0.00 0.00 79 1012.0
20260504012806 74 70 7.0 0.0 0.00 0.00 0.00 79 1012.0
20260504011305 75 70 7.0 0.0 0.00 0.00 0.00 79 1012.0
20260504005805 76 70 7.0 0.0 0.00 0.00 0.00 79 1012.0
20260504004305 77 70 7.0 0.0 0.00 0.00 0.00 79 1011.0
20260504002804 78 70 7.0 0.0 0.00 0.00 0.00 79 1010.0
20260504001304 79 70 7.0 0.0 0.00 0.00 0.00 79 1010.0
20260503234053 80 70 7.8 0.0 0.00 0.00 0.00 79 1010.0
20260503232552 81 70 7.8 0.0 0.00 0.00 0.00 79 1009.0
20260503231052 82 70 7.8 0.0 0.00 0.00 0.00 79 1010.0
20260503225550 83 80 7.8 0.0 0.00 0.00 0.00 79 1010.0
20260503224049 84 80 7.8 0.0 0.00 0.00 0.00 79 1010.0
20260503222549 85 80 7.8 0.0 0.00 0.00 0.00 79 1010.0
20260503221048 79 80 7.8 0.0 0.00 0.00 0.00 64 1010.0
20260503215548 80 75 7.0 7.0 0.00 0.00 0.00 64 1010.0
20260503214047 81 75 7.0 7.0 0.00 0.00 0.00 64 1010.0
20260503210836 82 75 7.0 7.8 0.00 0.00 0.00 64 1010.0
20260503205335 81 80 7.8 0.0 0.00 0.00 0.00 63 1010.0
20260503203835 82 80 7.8 0.0 0.00 0.00 0.00 63 1010.0
20260503200623 83 85 6.1 7.0 0.00 0.00 0.00 63 1011.0
20260503195123 84 85 6.1 7.0 0.00 0.00 0.00 63 1011.0
20260503193623 85 85 6.1 7.0 0.00 0.00 0.00 63 1011.0
20260503192122 81 90 4.3 0.0 0.00 0.00 0.00 70 1012.0
20260503190621 82 90 5.2 0.0 0.00 0.00 0.00 70 1012.0
20260503185120 83 90 5.2 0.0 0.00 0.00 0.00 70 1012.0
20260503183620 84 90 5.2 0.0 0.00 0.00 0.00 70 1012.0
20260503182119 85 90 5.2 0.0 0.00 0.00 0.00 70 1012.0
20260503180619 86 90 5.2 0.0 0.00 0.00 0.00 70 1012.0
20260503175118 87 90 5.2 0.0 0.00 0.00 0.00 70 1012.0
20260503173617 79 90 7.0 0.0 0.00 0.00 0.00 74 1013.0
20260503172117 80 90 7.0 0.0 0.00 0.00 0.00 74 1013.0
20260503170617 81 90 7.8 0.0 0.00 0.00 0.00 74 1013.0